Regional Weather Roundup
Issued by NWS

Home | Current Version | Previous Version | Text Only | Print | Product List | Glossary Off
Versions: 1 2 3 4 5 6 7 8 9 10 11 12 13 14 15 16 17 18 19 20 21 22 23 24 25 26 27 28 29 30 31 32 33 34 35 36 37 38 39 40 41 42 43 44 45 46 47 48 49 50

000
ASUS43 KMKX 292100
RWRWI

WISCONSIN REGIONAL WEATHER ROUNDUP
NATIONAL WEATHER SERVICE MILWAUKEE/SULLIVAN WI
400 PM CDT WED JUL 29 2015

NOTE: "FAIR" INDICATES FEW OR NO CLOUDS BELOW 12,000 FEET WITH NO
SIGNIFICANT WEATHER AND/OR OBSTRUCTIONS TO VISIBILITY.

WIZ001-002-006>008-014>016-023>028-292200-
NORTHWEST WISCONSIN

CITY           SKY/WX    TMP DP  RH WIND       PRES   REMARKS
SUPERIOR ARPT  CLOUDY    76  60  57 W13G18    29.79S
ASHLAND        CLOUDY    72  60  66 SW9G16    29.80F
HAYWARD        PTSUNNY   78  52  40 SW16G29   29.86S
SIREN          PTSUNNY   80  51  36 W25G33    29.87S HX  80
CUMBERLAND     MOSUNNY   77  52  41 W17G29    29.90S
RICE LAKE      MOSUNNY   77  54  44 W22G30    29.91S
CHETEK         MOSUNNY  N/A N/A N/A MISG      29.90S
LADYSMITH      MOSUNNY   79  53  40 W18G32    29.90S
EAU CLAIRE     NOT AVBL
MENOMONIE      SUNNY     81  52  36 W17G31    29.92S HX  80
NEW RICHMOND   SUNNY     80  52  37 W26G36    29.92F HX  80
OSCEOLA        MOSUNNY   80  55  42 W21G29    29.94S HX  80
$$

WIZ003>005-009-010-017-018-292200-
NORTH CENTRAL WISCONSIN

CITY           SKY/WX    TMP DP  RH WIND       PRES   REMARKS
MANITOWISH WTR CLOUDY    74  55  52 W21G30    29.85F
ARBOR VITAE    CLOUDY    74  56  53 W14G25    29.87R
WOODRUFF       CLOUDY    74  56  53 W14G25    29.87R
RHINELANDER    CLOUDY    76  53  44 W21G28    29.88R
EAGLE RIVER    CLOUDY    74  51  44 W18G25    29.86R
LAND O LAKES   CLOUDY    73  53  49 W8G26     29.86R
PHILLIPS       CLOUDY    75  55  50 W10G26    29.88R
TOMAHAWK       MOSUNNY   76  54  45 W21G29    29.89R
MEDFORD        PTSUNNY   76  54  46 W23G35    29.90S
MERRILL        NOT AVBL
$$

WIZ029-030-035-036-043>047-292200-
CENTRAL WISCONSIN

CITY           SKY/WX    TMP DP  RH WIND       PRES   REMARKS
WAUSAU         SUNNY     82  51  34 W24G39    29.87S HX  81
MOSINEE        SUNNY     81  52  36 W25G35    29.90S HX  80
MARSHFIELD     SUNNY     81  50  33 W21G36    29.91S HX  80
STEVENS POINT  SUNNY     80  51  35 W20G36    29.90S HX  80
WAUPACA        SUNNY     87  45  23 W23G30    29.88F HX  83
WAUTOMA        NOT AVBL
WISC RAPIDS    SUNNY     84  48  28 W21G33    29.92S HX  82
CAMP DOUGLAS   NOT AVBL
$$

WIZ011>013-019>022-031-037>040-048>050-292200-
NORTHEAST WISCONSIN

CITY           SKY/WX    TMP DP  RH WIND       PRES   REMARKS
ANTIGO         MOSUNNY   78  53  41 W23G30    29.87S
SHAWANO        SUNNY     85  50  30 W16G29    29.84F HX  82
OCONTO         SUNNY     86  53  31 W20G28    29.81F HX  84
STURGEON BAY   SUNNY     82  52  34 W17G28    29.84F HX  81
GREEN BAY      SUNNY     85  51  31 W18G31    29.85F HX  83
MANITOWOC      NOT AVBL
APPLETON       MOSUNNY   82  46  28 W17G30    29.88F HX  81
CLINTONVILLE   SUNNY     84  45  24 W20G31    29.86S HX  82
OSHKOSH        SUNNY     84  51  31 W12G23    29.88F HX  82
$$

WIZ032>034-041-042-053>061-292200-
SOUTHWEST WISCONSIN

CITY           SKY/WX    TMP DP  RH WIND       PRES   REMARKS
LA CROSSE      SUNNY     84  51  31 W25G31    29.94F HX  82
SPARTA         SUNNY     83  48  30 W17G26    29.95F HX  81
VIROQUA        SUNNY     80  52  37 W14G24    30.00F HX  80
BOSCOBEL       SUNNY     86  53  32 W12G22    29.99F HX  84
PRAIRIE DU CHI SUNNY     84  48  28 W16       30.00F HX  82
PLATTEVILLE    SUNNY     82  56  40 W20G25    30.03S HX  81
$$

WIZ056-057-062-063-064-067-068-292200-
SOUTH CENTRAL WISCONSIN

CITY           SKY/WX    TMP DP  RH WIND       PRES   REMARKS
REEDSBURG      SUNNY     84  51  32 W20G30    29.96F HX  82
BARABOO/DELLS  SUNNY     85  45  24 W14G23    29.96S HX  82
LONE ROCK      NOT AVBL
MINERAL POINT  SUNNY     82  48  30 W13G20    30.01F HX  81
MADISON        MOSUNNY   83  51  33 W10G20    29.95F HX  81
MIDDLETON      SUNNY     85  45  24 W22       29.98F HX  82
WATERTOWN      SUNNY     82  54  37 W17G23    29.95F HX  81
MONROE         SUNNY     81  50  34 W15G26    30.01F HX  80
JANESVILLE     SUNNY     86  48  26 W15G23    29.98F HX  83
$$

WIZ051-052-058>065-066-070>072-292200-
SOUTHEAST WISCONSIN

CITY           SKY/WX    TMP DP  RH WIND       PRES   REMARKS
MILWAUKEE      MOSUNNY   85  49  28 W20G26    29.93F HX  83
WAUKESHA       SUNNY     82  48  30 W20G26    29.96F HX  81
MILWAUKEE/TIMM SUNNY     84  45  24 W16G28    29.94F HX  82
RACINE         SUNNY     86  49  27 W15G23    29.95F HX  83
BURLINGTON     SUNNY     81  49  32 W10G21    29.97F HX  80
KENOSHA        SUNNY     83  54  36 W16G29    29.95F HX  82
FOND DU LAC    SUNNY     84  50  30 W16G29    29.90F HX  82
SHEBOYGAN      SUNNY     85  52  32 W18G26    29.89F HX  83
WEST BEND      SUNNY     82  46  28 W18G28    29.92F HX  81
JUNEAU         SUNNY     81  53  38 W20G26    29.95F HX  80
$$

LSZ147-162-292200-
LAKE SUPERIOR

STATION/POSITION TIME  TEMP    WIND        PRES    WAVE
                       AIR SEA DIR/SP/G            HT/PER
                 (UTC) (F)     (DEG/KT/KT) (MB)    (FT/S)
W MID LAKE BUOY  1950   63 56  230/ 21/ 25 1006.1R   7/ 7
DEVILS ISLAND    2000   68     240/ 25/ 29 1007.4R
PORT WING        2040   73     220/  9/ 16 1008.8S
SAXON HARBOR     2040   73                 1008.8F
$$

LMZ867-665-643>646-292200-
LAKE MICHIGAN

STATION/POSITION TIME  TEMP    WIND        PRES    WAVE
                       AIR SEA DIR/SP/G            HT/PER
                 (UTC) (F)     (DEG/KT/KT) (MB)    (FT/S)
CHAMBERS ISLAND  2000   80     210/  9/ 16 1008.8F
S GREEN BAY BUOY 2030   74 69  240/ 16/ 19 1011.2F
N MID LAKE BUOY  1950   72 70  210/ 17/ 19 1008.2F   3/ 4
NORTHPORT PIER   2000   83     260/  9/ 15 1008.5F
SISTER BAY       2044   83     250/ 17/ 20   N/A
ALGOMA LAKESHORE 2012          260/ 15/ 24   N/A
KEWAUNEE LAKESHO 2018   83                   N/A
SHEBOYGAN LAKESH 2000   83     260/ 19/ 24 1012.1F
PORT WASHINGTON  2040   86     250/ 15/ 24 1012.9F
ATWATER BUOY     2000   78     260/ 14/ 16 1015.0F
MILWAUKEE LAKESH 2000   83     270/ 14/ 20   N/A
KENOSHA   LAKESH 2000   83     280/ 14/ 22 1013.9F
$$

TC  - TEMPERATURE IN CELSIUS
VSB - VISIBILITY IN STATUTE MILES
WCI - WIND CHILL INDEX
HX  - HEAT INDEX




USA.gov is the U.S. government's official web portal to all federal, state and local government web resources and services.